Reading, PA

10:01 AM EDT on July 24, 2016 (GMT -0400)
Reading Regional-Spaatz

Weather History for KRDG - March, 2014

Change the Weather History Date:

Wednesday, March 26, 2014

  Actual Average Record
Temperature  
Mean Temperature 30 °F 44 °F  
Max Temperature 35 °F 54 °F 82 °F (1921)
Min Temperature 25 °F 35 °F 17 °F (1983)
Degree Days  
Heating Degree Days 35 20  
Month to date heating degree days 808 645  
Since 1 July heating degree days 5118 4687  
Cooling Degree Days 0 0  
Month to date cooling degree days 0 0  
Year to date cooling degree days 0 0  
Moisture  
Dew Point 11 °F    
Average Humidity 59    
Maximum Humidity 92    
Minimum Humidity 25    
Precipitation  
Precipitation 0.00 in 0.13 in 1.12 in (1913)
Month to date precipitation 0.66 2.80  
Year to date precipitation 7.34 8.33  
Sea Level Pressure  
Sea Level Pressure 30.04 in    
Wind  
Wind Speed 17 mph (NW)    
Max Wind Speed 35 mph    
Max Gust Speed 43 mph    
Visibility 9 miles    
Events      
T = Trace of Precipitation, MM = Missing Value Source: NWS Daily Summary

Daily Weather History Graph

Daily Weather History Graph

Search for Another Location

Airport or City:

Trip Planner

Search our weather history database for the weather conditions in past years. The results will help you decide how hot, cold, wet, or windy it might be!

Date:

Astronomy

Mar. 26, 2014 Rise Set
Actual Time 6:57 AM EDT 7:22 PM EDT
Civil Twilight 6:30 AM EDT 7:49 PM EDT
Nautical Twilight 5:58 AM EDT 8:21 PM EDT
Astronomical Twilight 5:25 AM EDT 8:54 PM EDT
Moon 4:05 AM EDT (3/26) 2:57 PM EDT (3/26)
Length of Visible Light 13h 19m
Length of Day
12h 24m
Waning Crescent, 22% of the Moon is Illuminated
Mar 26
Waning Crescent
Mar 30
New
Apr 7
First Quarter
Apr 15
Full
Apr 22
Last Quarter

Hourly Weather History & Observations

Time (EDT) Temp. Windchill Dew Point Humidity Pressure Visibility Wind Dir Wind Speed Gust Speed Precip Events Conditions
12:30 AM 30.0 °F 25.2 °F 28.0 °F 92% 29.87 in 4.0 mi NW 4.6 mph - N/A   Scattered Clouds
12:54 AM 30.0 °F 26.5 °F 28.0 °F 92% 29.89 in 3.0 mi WNW 3.5 mph - N/A   Scattered Clouds
1:54 AM 28.9 °F 22.8 °F 26.1 °F 89% 29.87 in 5.0 mi WNW 5.8 mph - N/A   Partly Cloudy
2:54 AM 28.0 °F 24.2 °F 26.1 °F 92% 29.87 in 4.0 mi WSW 3.5 mph - N/A   Clear
3:54 AM 28.0 °F 19.3 °F 24.1 °F 85% 29.88 in 6.0 mi WNW 9.2 mph - N/A   Partly Cloudy
4:54 AM 27.0 °F 18.7 °F 21.9 °F 81% 29.88 in 6.0 mi WNW 8.1 mph - N/A   Haze
5:54 AM 28.9 °F 18.2 °F 21.0 °F 72% 29.89 in 10.0 mi NNW 13.8 mph 20.7 mph N/A   Scattered Clouds
6:54 AM 27.0 °F 14.3 °F 19.9 °F 75% 29.93 in 10.0 mi NNW 17.3 mph 25.3 mph N/A   Clear
7:54 AM 27.0 °F 14.3 °F 17.1 °F 66% 29.98 in 10.0 mi NNW 17.3 mph 26.5 mph N/A   Partly Cloudy
8:54 AM 28.0 °F 14.9 °F 15.1 °F 58% 30.01 in 10.0 mi NNW 19.6 mph 28.8 mph N/A   Clear
9:54 AM 28.9 °F 15.4 °F 12.9 °F 51% 30.04 in 10.0 mi NNW 21.9 mph 33.4 mph N/A   Scattered Clouds
10:54 AM 28.9 °F 14.5 °F 10.9 °F 47% 30.06 in 10.0 mi NNW 25.3 mph 39.1 mph N/A   Clear
11:54 AM 30.9 °F 16.4 °F 10.9 °F 43% 30.05 in 10.0 mi NW 28.8 mph 35.7 mph N/A   Mostly Cloudy
12:54 PM 33.1 °F 20.9 °F 6.1 °F 32% 30.06 in 10.0 mi NW 21.9 mph 36.8 mph N/A   Scattered Clouds
1:54 PM 33.1 °F 19.8 °F 3.0 °F 28% 30.06 in 10.0 mi WNW 26.5 mph 39.1 mph N/A   Clear
2:54 PM 33.1 °F 21.5 °F 3.0 °F 28% 30.06 in 10.0 mi NNW 19.6 mph 32.2 mph N/A   Clear
3:54 PM 34.0 °F 21.5 °F 1.9 °F 26% 30.07 in 10.0 mi NNW 24.2 mph 35.7 mph N/A   Clear
4:54 PM 34.0 °F 21.5 °F 1.9 °F 26% 30.09 in 10.0 mi NW 24.2 mph 34.5 mph N/A   Clear
5:54 PM 34.0 °F 22.7 °F 1.9 °F 26% 30.11 in 10.0 mi NNW 19.6 mph - N/A   Clear
6:54 PM 32.0 °F 19.8 °F 1.0 °F 27% 30.14 in 10.0 mi NW 20.7 mph 25.3 mph N/A   Clear
7:54 PM 30.9 °F 21.7 °F -0.0 °F 27% 30.17 in 10.0 mi NW 11.5 mph - N/A   Clear
8:54 PM 30.0 °F 19.5 °F -0.9 °F 27% 30.22 in 10.0 mi NW 13.8 mph - N/A   Clear
9:54 PM 28.9 °F 17.7 °F -0.0 °F 29% 30.25 in 10.0 mi NNW 15.0 mph 20.7 mph N/A   Clear
10:54 PM 28.0 °F 16.1 °F -0.0 °F 30% 30.27 in 10.0 mi NNW 16.1 mph - N/A   Clear
11:54 PM 26.1 °F 16.2 °F 1.0 °F 34% 30.30 in 10.0 mi North 10.4 mph - N/A   Clear